User: anonymous   Login
Location: Unspecified
(0.0000°N, 0.0000°E)
Time: 04:52:29
(UTC+00:00)
Language:

USA 229 - Orbit

View from above orbital plane
View from above orbital plane
View from above satellite
View from above satellite

Ground track
Ground track

The orbit data is extracted from the following two-line orbital elements,

1 37386U 11014A   14300.84205886 0.00000000  00000-0  00000-0 0    06
2 37386  63.4395 306.9997 0020004 158.1549 201.8451 13.40661065    04
Epoch (UTC): 27 October 2014 20:12:33
Eccentricity: 0.0020004
inclination: 63.4395°
perigee height: 1092 km
apogee height: 1122 km
right ascension of ascending node: 306.9997°
argument of perigee: 158.1549°
revolutions per day: 13.40661065
mean anomaly at epoch: 201.8451°
orbit number at epoch: 0

The dashed part of the orbit path shows where the satellite is in the earth's shadow,  

DLR